This is the latest recevied weather packets stored in our database for station/object KE5AKC. If no packets are shown the sender has not sent any weather packets the latest 10 day(s).
| Time | Temp. | Humidity | Pressure | Rain* | Wind** | Luminosity | Snow |
|---|---|---|---|---|---|---|---|
| 1777760032 | 23.89° C | 40% | 1018.1 hPa | 0 mm | - | 468 W/m² | - |
| 1777759729 | 23.89° C | 39% | 1018.1 hPa | 0 mm | - | 487 W/m² | - |
| 1777759424 | 23.89° C | 39% | 1018.1 hPa | 0 mm | - | 512 W/m² | - |
| 1777759121 | 24.44° C | 38% | 1018.1 hPa | 0 mm | - | 530 W/m² | - |
| 1777758819 | 24.44° C | 38% | 1018.1 hPa | 0 mm | - | 551 W/m² | - |
| 1777758515 | 23.89° C | 39% | 1018.5 hPa | 0 mm | - | 568 W/m² | - |
| 1777758212 | 23.89° C | 39% | 1018.1 hPa | 0 mm | - | 584 W/m² | - |
| 1777757909 | 23.89° C | 38% | 1018.1 hPa | 0 mm | - | 608 W/m² | - |
| 1777757606 | 23.89° C | 39% | 1018.1 hPa | 0 mm | - | 625 W/m² | - |
| 1777757305 | 23.89° C | 40% | 1018.1 hPa | 0 mm | - | 641 W/m² | - |
| 1777757003 | 23.89° C | 38% | 1018.1 hPa | 0 mm | - | 662 W/m² | - |
| 1777756700 | 23.89° C | 37% | 1018.1 hPa | 0 mm | - | 683 W/m² | - |
| 1777756395 | 23.89° C | 38% | 1018.1 hPa | 0 mm | - | 728 W/m² | - |
| 1777756088 | 23.89° C | 39% | 1018.5 hPa | 0 mm | - | 726 W/m² | - |
| 1777755785 | 23.89° C | 40% | 1018.5 hPa | 0 mm | - | 734 W/m² | - |
| 1777755482 | 23.89° C | 40% | 1018.5 hPa | 0 mm | - | 749 W/m² | - |
| 1777755178 | 23.89° C | 39% | 1018.5 hPa | 0 mm | - | 761 W/m² | - |
| 1777754875 | 23.89° C | 40% | 1018.5 hPa | 0 mm | - | 774 W/m² | - |
| 1777754572 | 23.89° C | 40% | 1018.5 hPa | 0 mm | - | 791 W/m² | - |
| 1777754270 | 23.33° C | 39% | 1018.5 hPa | 0 mm | - | 804 W/m² | - |
| 1777753968 | 23.33° C | 39% | 1018.8 hPa | 0 mm | - | 817 W/m² | - |
| 1777753662 | 23.89° C | 40% | 1018.8 hPa | 0 mm | - | 829 W/m² | - |
| 1777753360 | 23.89° C | 42% | 1018.8 hPa | 0 mm | - | 844 W/m² | - |
| 1777753058 | 23.33° C | 39% | 1018.8 hPa | 0 mm | - | 855 W/m² | - |
| 1777752754 | 23.33° C | 39% | 1018.8 hPa | 0 mm | - | 872 W/m² | - |
* Rain latest hour (hover to see other rain measurements)
** Current wind speed in m/s (hover to see current wind gust speed)